Leadville, CO

9:30 PM MST on February 25, 2018 (GMT -0700)
Lake County

Weather History for KLXV - August, 2013

Change the Weather History Date:

Friday, August 16, 2013

  Actual Average Record
Temperature  
Mean Temperature 54 °F -  
Max Temperature 74 °F 68 °F 78 °F (2002)
Min Temperature 34 °F 38 °F 30 °F (1985)
Degree Days  
Heating Degree Days 11 12  
Month to date heating degree days 210 182  
Since 1 June heating degree days 848 998  
Since 1 July heating degree days 477 518  
Cooling Degree Days 0 0  
Month to date cooling degree days 0 0  
Year to date cooling degree days 0 0  
Since 1 June cooling degree days 0 0  
Growing Degree Days 5 (Base 50)    
Moisture  
Dew Point 24 °F    
Average Humidity 41    
Maximum Humidity 70    
Minimum Humidity 12    
Precipitation  
Precipitation 0.00 in 0.07 in 1.13 in (2007)
Month to date precipitation 0.65 1.10  
Year to date precipitation 10.88 8.02  
Sea Level Pressure  
Sea Level Pressure 30.07 in    
Wind  
Wind Speed 4 mph (NNW)    
Max Wind Speed 17 mph    
Max Gust Speed 25 mph    
Visibility 10 miles    
Events      
T = Trace of Precipitation, MM = Missing Value Source: NWS Daily Summary

Daily Weather History Graph

Daily Weather History Graph

Search for Another Location

Airport or City:

Trip Planner

Search our weather history database for the weather conditions in past years. The results will help you decide how hot, cold, wet, or windy it might be!

Date:

Astronomy

Aug. 16, 2013 Rise Set
Actual Time 6:19 AM MDT 7:58 PM MDT
Civil Twilight 5:50 AM MDT 8:27 PM MDT
Nautical Twilight 5:16 AM MDT 9:01 PM MDT
Astronomical Twilight 4:39 AM MDT 9:38 PM MDT
Moon 4:19 PM MDT (8/16) 1:25 AM MDT (8/16)
Length of Visible Light 14h 36m
Length of Day
13h 39m
Waxing Gibbous, 75% of the Moon is Illuminated
Aug 16
Waxing Gibbous
Aug 20
Full
Aug 28
Last Quarter
Sep 5
New
Sep 12
First Quarter

Hourly Weather History & Observations

Time (MDT) Temp. Windchill Dew Point Humidity Pressure Visibility Wind Dir Wind Speed Gust Speed Precip Events Conditions
12:53 AM 44.1 °F - 26.1 °F 49% 30.06 in 10.0 mi Calm Calm - N/A   Clear
1:53 AM 44.1 °F - 25.0 °F 47% 30.06 in 10.0 mi Calm Calm - N/A   Clear
2:53 AM 41.0 °F 38.0 °F 26.1 °F 55% 30.08 in 10.0 mi ENE 4.6 mph - N/A   Clear
3:53 AM 39.0 °F - 26.1 °F 60% 30.09 in 10.0 mi Calm Calm - N/A   Clear
4:53 AM 37.9 °F 35.5 °F 26.1 °F 62% 30.09 in 10.0 mi ESE 3.5 mph - N/A   Clear
5:53 AM 37.0 °F - 27.0 °F 67% 30.12 in 10.0 mi Calm Calm - N/A   Clear
6:53 AM 37.9 °F - 28.0 °F 68% 30.13 in 10.0 mi Calm Calm - N/A   Clear
7:53 AM 46.9 °F - 30.9 °F 54% 30.12 in 10.0 mi Calm Calm - N/A   Clear
8:53 AM 54.0 °F - 28.9 °F 38% 30.10 in 10.0 mi Calm Calm - N/A   Clear
9:53 AM 60.1 °F - 30.0 °F 32% 30.08 in 10.0 mi Calm Calm - N/A   Clear
10:53 AM 66.9 °F - 21.0 °F 17% 30.05 in 10.0 mi West 10.4 mph 18.4 mph N/A   Partly Cloudy
11:53 AM 68.0 °F - 19.0 °F 15% 30.06 in 10.0 mi SW 6.9 mph 16.1 mph N/A   Clear
12:53 PM 69.1 °F - 21.0 °F 16% 30.05 in 10.0 mi NNW 11.5 mph 20.7 mph N/A   Scattered Clouds
1:53 PM 70.0 °F - 19.0 °F 14% 30.04 in 10.0 mi NW 6.9 mph - N/A   Mostly Cloudy
2:53 PM 69.1 °F - 19.0 °F 15% 30.06 in 10.0 mi NNW 9.2 mph - N/A   Mostly Cloudy
3:53 PM 71.1 °F - 18.0 °F 13% 30.04 in 10.0 mi Calm Calm - N/A   Partly Cloudy
4:53 PM 73.0 °F - 18.0 °F 12% 30.02 in 10.0 mi NW 10.4 mph 19.6 mph N/A   Mostly Cloudy
5:53 PM 72.0 °F - 19.0 °F 13% 30.03 in 10.0 mi WNW 13.8 mph 20.7 mph N/A   Clear
6:53 PM 69.1 °F - 19.0 °F 15% 30.04 in 10.0 mi NW 9.2 mph - N/A   Clear
7:53 PM 62.1 °F - 24.1 °F 23% 30.04 in 10.0 mi NE 5.8 mph - N/A   Clear
8:53 PM 55.0 °F - 25.0 °F 31% 30.06 in 10.0 mi NNE 5.8 mph - N/A   Clear
9:53 PM 55.9 °F - 25.0 °F 30% 30.04 in 10.0 mi East 3.5 mph - N/A   Mostly Cloudy
10:53 PM 52.0 °F - 28.0 °F 40% 30.03 in 10.0 mi Calm Calm - N/A   Partly Cloudy
11:53 PM 45.0 °F - 28.0 °F 52% 30.07 in 10.0 mi Calm Calm - N/A   Clear